Content
SEND FEEDBACK

Daily
Averages
Monthly
Summary
United States of America

RAPID CITY, SOUTH DAKOTA


Home > North America > United States > South Dakota
Elevation: 3162 feet     Latitude: 44 03N     Longitude: 103 04W

WEATHER
 
SELECT A DAY
Number of Records: 200,374;   Date Range: 1/1/95 - 8/12/14
 
SHARE

PRINT THIS DATA

[ ← Previous Day ]
WEATHER ALMANAC - FEBRUARY 19, 2013
[ Next Day → ]
[ °C ]   °F
Weather ElementAverageHighLow
Temperature15.3 °F24.8 °F (12:59 pm)6.1 °F (2:52 am)
Dewpoint7.4 °F12.9 °F (11:52 am)3 °F (2:52 am)
Humidity72.3 %92 % (6:18 am)57 % (5:52 pm)
Barometer30.21 in30.33 in (7:52 am)30.02 in (7:52 pm)
Wind Speed12.2 mph19.6 mph (12:23 pm)
Wind Gust26.5 mph (12:59 pm)
Weather ElementAverage
Visibility9.1 mi
Wind DirectionESE (115.2 °)

Weather ElementTotal
Precipitation---
Heating Degree Days49.6 (Base 65)
Averaged from 27 records on February 19, 2013
WEATHER CONDITIONS BREAKOUT
WIND DIRECTION BREAKOUT
WEATHER BY HOUR - FEBRUARY 19, 2013
[ °C ]   °F
Local TimeTemperatureDewpointHumidityBarometerVisibilityWind DirectionWind SpeedGust SpeedPrecipitationEventsConditions
1:52 AM9.0 °F3.9 °F80 %30.29 in10.0 miCalmClear
2:29 AM6.8 °F3.2 °F85 %30.15 in10.0 miCalmMostly Cloudy
2:52 AM6.1 °F3.0 °F87 %30.30 in10.0 miNNE (30°)3.5 mphMostly Cloudy
3:47 AM10.4 °F6.8 °F85 %30.15 in10.0 miEast (80°)3.5 mphOvercast
3:52 AM10.9 °F8.1 °F88 %30.30 in10.0 miEast (90°)3.5 mphOvercast
4:52 AM12.0 °F8.1 °F84 %30.31 in10.0 miESE (120°)3.5 mphOvercast
5:52 AM10.9 °F8.1 °F88 %30.32 in10.0 miSSE (150°)8.1 mphOvercast
6:18 AM10.4 °F8.6 °F92 %30.16 in6.0 miSE (140°)8.1 mph0.00 inSnowLight Snow
6:52 AM10.9 °F7.0 °F84 %30.32 in6.0 miESE (120°)8.1 mph0.00 inSnowLight Snow
7:52 AM10.9 °F7.0 °F84 %30.33 in5.0 miESE (120°)11.5 mph0.00 inSnowLight Snow
8:52 AM12.0 °F9.0 °F88 %30.33 in4.0 miSE (130°)13.8 mph0.00 inSnowLight Snow
9:52 AM14.0 °F10.9 °F88 %30.32 in5.0 miESE (120°)12.7 mph0.00 inSnowLight Snow
11:52 AM19.9 °F12.9 °F74 %30.28 in10.0 miSE (140°)17.3 mph21.9 mph0.00 inOvercast
12:23 PM21.2 °F12.2 °F68 %30.10 in10.0 miSE (140°)19.6 mphOvercast
12:52 PM23.0 °F12.0 °F63 %30.24 in10.0 miSSE (150°)17.3 mph24.2 mphMostly Cloudy
12:59 PM24.8 °F12.2 °F59 %30.07 in10.0 miSE (130°)17.3 mph26.5 mphScattered Clouds
1:52 PM23.0 °F10.0 °F58 %30.23 in10.0 miSE (140°)18.4 mphPartly Cloudy
2:52 PM23.0 °F10.0 °F58 %30.22 in10.0 miSE (130°)17.3 mphMostly Cloudy
3:27 PM23.0 °F10.4 °F59 %30.04 in10.0 miSE (130°)19.6 mphMostly Cloudy
3:52 PM21.9 °F9.0 °F58 %30.20 in10.0 miSE (130°)19.6 mphOvercast
5:52 PM18.0 °F5.0 °F57 %30.19 in10.0 miESE (120°)17.3 mphClear
6:52 PM15.1 °F3.9 °F61 %30.20 in10.0 miESE (120°)11.5 mphClear
7:52 PM15.8 °F3.2 °F58 %30.02 in10.0 miSE (130°)13.8 mphClear
8:52 PM15.1 °F3.9 °F61 %30.19 in10.0 miSE (130°)16.1 mphClear
9:52 PM15.1 °F3.9 °F61 %30.18 in10.0 miSE (140°)17.3 mphClear
10:52 PM15.1 °F3.9 °F61 %30.16 in10.0 miSE (140°)16.1 mphClear
11:52 PM14.0 °F3.9 °F64 %30.14 in10.0 miSE (140°)15.0 mphClear
Hourly data recorded from KRAP, located miles away from Rapid City, South Dakota







STORIES FROM OUR PARTNERS